{"data":{"norad_id":49178,"intl_designator":"2021-082BA","name":"STARLINK-3086","alt_names":[],"object_type":"PAYLOAD","status":"ACTIVE","operator":null,"country":"US","launch_date":"2021-09-14","launch_site_code":"AFWTR","launch_vehicle":null,"mission":null,"orbit_class":"UNKNOWN","rcs_meters":null,"size_class":null,"mass_kg":null,"dimensions":null,"purposes":["comms"],"wikipedia_slug":null,"has_3d_model":false,"image_url":null,"decayed_at":null,"tle_current":{"epoch":"2026-05-25T02:59:54.623328Z","epoch_age_seconds":60925,"freshness":"FRESH","line1":"1 49178U 21082BA  26145.12493777 -.00004679  00000+0 -38490-3 0  9994","line2":"2 49178  69.9993 101.7238 0003190 265.3902  94.6893 14.98299661258580","mean_motion":14.98299661,"eccentricity":0.000319,"inclination_deg":69.9993,"raan_deg":101.7238,"arg_perigee_deg":265.3902,"mean_anomaly_deg":94.6893,"bstar":-0.0003849,"rev_number":25858,"period_min":96.108945191839,"perigee_km":569.93257192082,"apogee_km":574.36685484395,"semimajor_km":6950.2867133824,"source":"CELESTRAK","updated_at":"2026-05-25T13:38:16.793408Z"}}}